Regional Weather Roundup
Issued by NWS Lake Charles, LA

Home | Current Version | Previous Version | Text Only | Print | Product List | Glossary On
Versions: 1 2 3 4 5 6 7 8 9 10 11 12 13 14 15 16 17 18 19 20 21 22 23 24 25 26 27 28 29 30 31 32 33 34 35 36 37 38 39 40 41 42 43 44 45 46 47 48 49 50
250
ASUS44 KLCH 210210
RWRLCH
REGIONAL WEATHER ROUNDUP
NATIONAL WEATHER SERVICE LAKE CHARLES LA
900 PM CDT FRI APR 20 2018

Note: "fair" indicates few or no clouds below 12,000 feet with no
significant weather and/or obstructions to visibility.


ACROSS SOUTHEAST TEXAS

CITY           SKY/WX    TMP DP  RH WIND       PRES   REMARKS
BEAUMONT       FAIR      62  51  67 SE6       30.14R
BEAUMONT CITY  FAIR      63  47  56 E6        30.14F
ORANGE         FAIR      62  50  65 E5        30.17R
JASPER         FAIR      61  53  75 CALM      30.18R
$$

ACROSS CENTRAL LOUISIANA

CITY           SKY/WX    TMP DP  RH WIND       PRES   REMARKS
LEESVILLE      CLOUDY    59  45  58 E5        30.16R
FULLERTON      FAIR      55  49  80 CALM      30.15R
ALEXANDRIA INT FAIR      55  46  71 E3        30.16R
ESLER FIELD    FAIR      52  49  89 CALM      30.17R
DERIDDER       FAIR      60  46  59 CALM      30.17S
OAKDALE        FAIR      53  51  91 CALM      30.18R
OPELOUSAS      FAIR      58  48  68 CALM      30.18S
$$

ACROSS SOUTHWEST AND SOUTH CENTRAL LOUISIANA

CITY           SKY/WX    TMP DP  RH WIND       PRES   REMARKS
SULPHUR        FAIR      63  46  54 E3        30.17R
LAKE CHARLES   FAIR      62  48  60 E6        30.15S
CHENNAULT INT  CLEAR     61  48  63 E5        30.16S
CAMERON PHI    CLEAR     63  48  59 E8        30.15S
DEQUINCY       FAIR      59  47  64 CALM      30.17R
JENNINGS       FAIR      60  49  65 MISG      30.17S
LAFAYETTE      FAIR      60  53  77 CALM      30.18R
NEW IBERIA     FAIR      63  45  51 E5        30.18R
ABBEVILLE      FAIR      57  51  81 CALM      30.18S
PATTERSON      FAIR      60  51  72 CALM      30.19R
SALT POINT       N/A    N/A N/A N/A CALM      30.17R
$$

SELECTED SITES ACROSS THE REGION

CITY           SKY/WX    TMP DP  RH WIND       PRES   REMARKS
HOUSTON BUSH   MOCLDY    61  50  67 SE9       30.12S
HOUSTON HOBBY  CLOUDY    62  56  80 E9        30.10F
GALVESTON      MOCLDY    65  57  75 E13       30.11F
COLLEGE STAT   CLEAR     60  48  64 E6        30.10F
CONROE         CLOUDY    57  53  86 E3        30.12S
HUNTSVILLE     PTCLDY    60  48  64 E3        30.11S
LUFKIN         CLEAR     55  50  83 E3        30.14S
SHREVEPORT     FAIR      58  42  55 SE8       30.16R
MONROE         FAIR      54  44  69 CALM      30.20R
NATCHEZ MS     FAIR      54  49  83 CALM      30.19R
BATON ROUGE    FAIR      58  50  75 CALM      30.18R
N.O. INTL ARPT FAIR      62  47  57 E6        30.19R
SLIDELL        FAIR      55  49  80 CALM      30.18R
$$

MARINE REPORTS

STATION/POSITION TIME  SKY/WX   TEMP    WIND        PRES    VSBY
                                AIR SEA DIR/SP/G
                 (UTC)          (F)     (DEG/KT/KT) (MB)    (MI)
BUOY 30 S HIGH I 0050            65 70   90/ 14/ 17 1019.8
WVE H/P(F/S)=  3/ 4

SEA RIM ST PARK  0200            64     110/ 12/ 15 1020.9F
PORT ARTHUR      0148            63 68  120/  5/  9 1021.0R
SABINE PASS N    0148            65 71  120/ 11/ 13 1022.2S
TEXAS POINT      NOT AVBL
CALCASIEU PASS   0148            63 69   90/  6/  8 1019.9F
LK CHARLES BEACH 0148            63 67              1020.6S
MARSH ISLAND     NOT AVBL
FRESH WATER LOCK 0148            62 67              1021.6S
AMERADA PASS     0148            63 67   80/  3/  5 1022.1R
$$




USA.gov is the U.S. government's official web portal to all federal, state and local government web resources and services.